TimeEST,TemperatureF,Dew PointF,Humidity,Sea Level PressureIn,VisibilityMPH,Wind Direction,Wind SpeedMPH,Gust SpeedMPH,PrecipitationIn,Events,Conditions,WindDirDegrees,DateUTC
12:15 AM,42.8,25.9,51,29.54,10.0,West,25.3,38.0,N/A,,Mostly Cloudy,260,2013-01-20 05:15:00
12:34 AM,41.9,22.3,46,29.54,10.0,West,23.0,40.3,N/A,,Overcast,260,2013-01-20 05:34:00
12:54 AM,40.5,17.8,40,29.55,10.0,WSW,31.1,46.0,N/A,,Mostly Cloudy,250,2013-01-20 05:54:00
1:15 AM,39.2,15.4,38,29.56,10.0,West,25.3,43.7,N/A,,Clear,260,2013-01-20 06:15:00
1:34 AM,38.5,13.3,36,29.57,10.0,West,32.2,46.0,N/A,,Mostly Cloudy,270,2013-01-20 06:34:00
1:55 AM,36.9,12.9,37,29.59,10.0,West,28.8,41.4,N/A,,Mostly Cloudy,270,2013-01-20 06:55:00
3:34 AM,25.3,9.9,52,29.76,10.0,West,29.9,41.4,N/A,,Mostly Cloudy,270,2013-01-20 08:34:00
3:55 AM,24.3,10.9,57,29.78,10.0,West,28.8,40.3,N/A,,Overcast,270,2013-01-20 08:55:00
4:15 AM,23.5,7.7,51,29.79,10.0,West,24.2,36.8,N/A,,Overcast,270,2013-01-20 09:15:00
4:34 AM,23.0,7.0,50,29.81,10.0,West,20.7,46.0,N/A,,Overcast,280,2013-01-20 09:34:00
4:55 AM,21.9,5.7,50,29.82,10.0,WNW,29.9,40.3,N/A,,Mostly Cloudy,290,2013-01-20 09:55:00
5:14 AM,21.2,6.1,52,29.83,10.0,West,20.7,35.7,N/A,,Scattered Clouds,280,2013-01-20 10:14:00
5:34 AM,20.7,6.6,55,29.84,10.0,West,21.9,31.1,N/A,,Mostly Cloudy,280,2013-01-20 10:34:00
5:55 AM,20.3,4.1,50,29.86,10.0,West,25.3,36.8,N/A,,Overcast,280,2013-01-20 10:55:00
6:14 AM,20.1,4.1,50,29.88,10.0,West,21.9,35.7,N/A,,Overcast,270,2013-01-20 11:14:00
6:34 AM,19.6,5.9,55,29.91,7.0,WNW,17.3,33.4,N/A,Snow,Light Snow,290,2013-01-20 11:34:00
7:14 AM,18.5,3.9,53,29.95,10.0,West,21.9,32.2,N/A,,Overcast,280,2013-01-20 12:14:00
7:34 AM,18.3,2.1,49,29.98,10.0,West,18.4,32.2,N/A,,Overcast,280,2013-01-20 12:34:00
8:14 AM,16.7,3.4,56,30.01,10.0,WNW,20.7,31.1,N/A,,Overcast,300,2013-01-20 13:14:00
8:34 AM,16.2,0.9,51,30.03,10.0,WNW,20.7,28.8,N/A,,Mostly Cloudy,290,2013-01-20 13:34:00
8:55 AM,17.1,2.1,52,30.05,10.0,West,21.9,27.6,N/A,,Clear,280,2013-01-20 13:55:00
9:14 AM,17.2,2.8,53,30.06,10.0,West,20.7,27.6,N/A,,Clear,280,2013-01-20 14:14:00
9:34 AM,18.1,2.3,50,30.07,10.0,West,24.2,32.2,N/A,,Scattered Clouds,280,2013-01-20 14:34:00
10:35 AM,19.6,3.9,51,30.09,10.0,WNW,21.9,26.5,N/A,,Scattered Clouds,290,2013-01-20 15:35:00
10:54 AM,19.6,4.3,52,30.10,10.0,WNW,16.1,25.3,N/A,,Mostly Cloudy,300,2013-01-20 15:54:00
11:14 AM,19.8,4.3,51,30.10,10.0,WNW,16.1,24.2,N/A,,Overcast,290,2013-01-20 16:14:00
11:35 AM,19.4,4.1,52,30.11,10.0,West,17.3,25.3,N/A,,Overcast,280,2013-01-20 16:35:00
11:54 AM,20.1,4.1,50,30.11,10.0,West,15.0,20.7,N/A,,Overcast,280,2013-01-20 16:54:00
12:15 PM,19.4,4.3,52,30.11,10.0,West,15.0,24.2,N/A,,Overcast,280,2013-01-20 17:15:00
12:35 PM,20.5,4.5,50,30.10,10.0,WNW,19.6,24.2,N/A,,Overcast,290,2013-01-20 17:35:00
12:54 PM,20.3,2.7,47,30.10,10.0,West,16.1,21.9,N/A,,Overcast,280,2013-01-20 17:54:00
1:15 PM,21.2,3.4,46,30.09,10.0,West,19.6,-,N/A,,Overcast,260,2013-01-20 18:15:00
1:34 PM,21.0,3.4,47,30.09,10.0,West,16.1,24.2,N/A,,Overcast,280,2013-01-20 18:34:00
1:54 PM,21.0,3.9,48,30.09,10.0,West,17.3,23.0,N/A,,Overcast,260,2013-01-20 18:54:00
2:15 PM,20.3,3.6,48,30.10,10.0,WNW,18.4,27.6,N/A,,Overcast,290,2013-01-20 19:15:00
2:34 PM,20.1,3.2,48,30.10,10.0,West,15.0,24.2,N/A,,Overcast,280,2013-01-20 19:34:00
2:54 PM,20.3,3.4,48,30.10,10.0,West,17.3,24.2,N/A,,Overcast,260,2013-01-20 19:54:00
3:34 PM,20.1,4.6,51,30.11,10.0,West,19.6,25.3,N/A,,Overcast,280,2013-01-20 20:34:00
3:55 PM,19.9,4.1,50,30.12,10.0,West,18.4,25.3,N/A,,Overcast,270,2013-01-20 20:55:00
4:14 PM,20.1,5.5,53,30.11,10.0,West,17.3,-,N/A,,Overcast,270,2013-01-20 21:14:00
5:14 PM,19.0,3.7,51,30.12,10.0,WNW,15.0,18.4,N/A,,Overcast,290,2013-01-20 22:14:00
5:35 PM,18.5,3.2,51,30.12,10.0,West,16.1,21.9,N/A,,Overcast,280,2013-01-20 22:35:00
5:54 PM,18.5,3.6,52,30.13,10.0,WNW,10.4,-,N/A,,Overcast,290,2013-01-20 22:54:00
6:14 PM,18.5,4.1,54,30.13,10.0,WNW,15.0,-,N/A,,Overcast,290,2013-01-20 23:14:00
6:34 PM,18.3,4.3,54,30.13,10.0,West,9.2,19.6,N/A,,Overcast,270,2013-01-20 23:34:00
6:54 PM,18.0,3.9,54,30.14,10.0,West,10.4,-,N/A,,Overcast,270,2013-01-20 23:54:00
7:15 PM,17.6,3.4,54,30.14,10.0,West,12.7,20.7,N/A,,Overcast,270,2013-01-21 00:15:00
7:54 PM,17.6,4.1,56,30.14,10.0,WNW,9.2,-,N/A,,Overcast,300,2013-01-21 00:54:00
8:15 PM,17.2,4.8,58,30.14,10.0,West,11.5,18.4,N/A,,Overcast,270,2013-01-21 01:15:00
8:34 PM,16.9,3.6,56,30.14,10.0,West,10.4,17.3,N/A,,Overcast,270,2013-01-21 01:34:00
8:55 PM,16.7,5.0,60,30.13,10.0,WNW,11.5,-,N/A,,Overcast,290,2013-01-21 01:55:00
9:15 PM,16.5,5.0,61,30.13,10.0,West,10.4,-,N/A,,Overcast,280,2013-01-21 02:15:00
9:34 PM,16.5,3.0,55,30.13,10.0,WNW,9.2,-,N/A,,Overcast,290,2013-01-21 02:34:00
9:55 PM,16.2,3.0,56,30.14,10.0,WNW,11.5,-,N/A,,Overcast,300,2013-01-21 02:55:00
10:15 PM,15.8,2.8,57,30.14,10.0,WNW,12.7,-,N/A,,Overcast,290,2013-01-21 03:15:00
10:34 PM,15.8,2.8,57,30.13,10.0,NW,10.4,-,N/A,,Overcast,320,2013-01-21 03:34:00
10:55 PM,15.6,2.1,55,30.13,10.0,NW,5.8,-,N/A,,Overcast,310,2013-01-21 03:55:00
11:15 PM,15.6,2.1,55,30.13,10.0,West,6.9,-,N/A,,Overcast,280,2013-01-21 04:15:00
11:34 PM,15.6,2.3,56,30.12,10.0,WNW,5.8,-,N/A,,Overcast,290,2013-01-21 04:34:00
11:55 PM,15.8,2.3,55,30.11,10.0,NW,4.6,-,N/A,,Overcast,320,2013-01-21 04:55:00